Tracking 17265 objects as of 3-September-2015
HD Live streaming from Space Station

Track Soyuz TMA-18M
and Space Station

KOMPSAT 3

Track KOMPSAT 3 now!
10-day predictions
KOMPSAT 3 is classified as:


NORAD ID: 38338
Int'l Code: 2012-025B
Perigee: 689.9 km
Apogee: 702.6 km
Inclination: 98.1 °
Period: 98.5 minutes
Semi major axis: 7067 km
RCS: 5.2993 m2 (large)
Launch date: May 17, 2012
Source: South Korea (SKOR)
Your satellite tracking list
Your tracking list is empty





NASA's NSSDC Master Catalog

Two Line Element Set (TLE):
1 38338U 12025B   15245.41215652  .00000209  00000-0  51881-4 0  9996
2 38338  98.1312 181.7155 0008932 213.3042 146.7595 14.61257876175698

Source of the keplerian elements: AFSPC

N2YO: 488